DateTime,Index
2004040200,0.0
2004040206,0.0
2004040212,0.0
2004040218,0.0
2004040300,0.0
2004040306,0.0
2004040312,0.0
2004040318,0.0
2004040400,0.0
2004040406,0.0
2004040412,1225.0
2004040418,1225.0
2004040500,1600.0
2004040506,2500.0
2004040512,3025.0
2004040518,3025.0
2004040600,4225.0
2004040606,4225.0
2004040612,5625.0
2004040618,5625.0
2004040700,6400.0
2004040706,8100.0
2004040712,8100.0
2004040718,9025.0
2004040800,10000.0
2004040806,13225.0
2004040812,13225.0
2004040818,12100.0
2004040900,12100.0
2004040906,12100.0
2004040912,13225.0
2004040918,15625.0
2004041000,16900.0
2004041006,16900.0
2004041012,14400.0
2004041018,13225.0
2004041100,13225.0
2004041106,13225.0
2004041112,12100.0
2004041118,13225.0
2004041200,13225.0
2004041206,13225.0
2004041212,14400.0
2004041218,14400.0
2004041300,14400.0
2004041306,15625.0
2004041312,13225.0
2004041318,13225.0
2004041400,11025.0
2004041406,11025.0
2004041412,10000.0
2004041418,8100.0
2004041500,7225.0
2004041506,4900.0
2004041512,3025.0
2004041518,1600.0
